Location: Unspecified
(0.0000°N, 1.0000°E)
Time: 12:26:02
(UTC+02:00)

Envisat - Visible Passes

Search period start: 20 September 2020 00:00
Search period end: 30 September 2020 00:00
Orbit: 764 x 766 km, 98.1° (Epoch: 20 September)

Date Brightness Start Highest point End Pass type
(mag) Time Alt. Az. Time Alt. Az. Time Alt. Az.
20 Sep 4.7 07:09:03 10° NE 07:13:43 38° ESE 07:18:25 10° S visible
21 Sep 6.2 06:34:37 10° ENE 06:37:03 14° ESE 06:39:29 10° SE visible
21 Sep 6.2 20:44:14 10° SW 20:46:51 14° WSW 20:49:28 10° WNW visible
22 Sep 4.6 20:05:27 10° S 20:10:11 40° WSW 20:14:54 10° NNW visible
23 Sep 5.3 06:58:06 10° NE 07:02:24 28° ESE 07:06:42 10° SSE visible
24 Sep 5.9 20:31:58 10° SSW 20:35:32 19° WSW 20:39:07 10° WNW visible
26 Sep 5.8 06:47:20 10° NE 06:51:05 21° ESE 06:54:49 10° SSE visible
27 Sep 5.5 20:20:01 10° SSW 20:24:13 26° WSW 20:28:24 10° NW visible
28 Sep 4.4 07:11:38 10° NNE 07:16:26 43° ESE 07:21:13 10° S visible
29 Sep 6.1 06:36:52 10° ENE 06:39:46 15° ESE 06:42:38 10° SE visible
29 Sep 6.3 20:47:27 10° SW 20:49:33 12° WSW 20:51:39 10° WNW visible
